Location: Minneapolis
(45.0000°N, 93.0000°W)
Time: 16:25:36
(UTC-06:00)

Envisat - Visible Passes

Search period start: 23 February 2018 00:00
Search period end: 05 March 2018 00:00
Orbit: 764 x 766 km, 98.2° (Epoch: 23 February)

Date Brightness Start Highest point End Pass type
(mag) Time Alt. Az. Time Alt. Az. Time Alt. Az.
23 Feb 4.2 18:23:27 10° ESE 18:27:14 22° ENE 18:31:01 10° NNE visible
23 Feb 3.7 20:00:55 10° S 20:05:52 54° W 20:10:52 10° NNW visible
24 Feb 2.9 19:24:05 10° SSE 19:29:08 72° ENE 19:34:13 10° N visible
24 Feb 5.7 21:05:49 10° WSW 21:08:41 15° W 21:11:33 10° NW visible
25 Feb 3.6 18:48:01 10° SE 18:52:34 34° ENE 18:57:09 10° N visible
25 Feb 4.7 20:27:06 10° SSW 20:31:36 32° W 20:36:07 10° NNW visible
26 Feb 3.3 19:49:40 10° S 19:54:43 68° WSW 19:59:47 10° NNW visible
27 Feb 3.0 19:13:04 10° SSE 19:18:01 57° ENE 19:23:00 10° N visible
27 Feb 5.5 20:53:53 10° SW 20:57:25 19° W 21:00:58 10° NW visible
28 Feb 3.9 18:37:15 10° ESE 18:41:32 28° ENE 18:45:49 10° N visible
28 Feb 4.3 20:15:39 10° SSW 20:20:23 39° W 20:25:09 10° NNW visible
01 Mar 3.0 19:38:29 10° SSE 19:43:34 85° WSW 19:48:40 10° NNW visible
01 Mar 6.0 21:22:20 10° W 21:23:20 10° W 21:24:20 10° WNW visible
02 Mar 3.3 19:02:06 10° SE 19:06:56 46° ENE 19:11:47 10° N visible
02 Mar 5.2 20:42:09 10° SW 20:46:10 23° W 20:50:12 10° NW visible
03 Mar 4.1 18:26:33 10° ESE 18:30:30 23° ENE 18:34:27 10° NNE visible
03 Mar 3.8 20:04:18 10° S 20:09:12 49° W 20:14:09 10° NNW visible
04 Mar 2.9 19:27:22 10° SSE 19:32:25 78° ENE 19:37:32 10° N visible
04 Mar 5.8 21:09:33 10° WSW 21:12:03 14° W 21:14:33 10° WNW visible
